�������l�o���
Date,Time,MP-1(��Sv/h),MP-2(��Sv/h),MP-3(��Sv/h),MP-4(��Sv/h),MP-5(��Sv/h),MP-6(��Sv/h),MP-7(��Sv/h),MP-8(��Sv/h),����,����(m/s),���J
2020/07/26,00:00,0.651,0.929,0.590,1.121,0.807,0.388,0.665,0.627,�k��,1.9,�L
2020/07/26,00:10,0.650,0.929,0.589,1.121,0.808,0.390,0.666,0.625,�k�k��,2.0,�L
2020/07/26,00:20,0.651,0.929,0.588,1.120,0.807,0.391,0.667,0.625,�k��,1.7,�L
2020/07/26,00:30,0.649,0.929,0.590,1.120,0.806,0.390,0.666,0.627,�k�k��,2.2,�L
2020/07/26,00:40,0.649,0.927,0.589,1.122,0.807,0.390,0.667,0.626,�k�k��,2.3,�L
2020/07/26,00:50,0.651,0.927,0.590,1.120,0.808,0.388,0.666,0.626,�k��,2.3,��
2020/07/26,01:00,0.651,0.928,0.588,1.121,0.807,0.389,0.667,0.625,�k��,2.3,��
2020/07/26,01:10,0.649,0.927,0.587,1.120,0.808,0.391,0.665,0.626,�k�k��,1.7,��
2020/07/26,01:20,0.648,0.927,0.587,1.119,0.808,0.388,0.665,0.626,�k,2.0,��
2020/07/26,01:30,0.648,0.927,0.589,1.116,0.807,0.390,0.665,0.626,�k�k��,2.6,�L
2020/07/26,01:40,0.649,0.927,0.588,1.117,0.806,0.389,0.666,0.625,�k,2.8,�L
2020/07/26,01:50,0.648,0.926,0.587,1.118,0.806,0.387,0.665,0.627,�k�k��,1.7,��
2020/07/26,02:00,0.649,0.925,0.588,1.118,0.804,0.389,0.665,0.626,�k,1.9,��
2020/07/26,02:10,0.650,0.925,0.586,1.121,0.804,0.389,0.664,0.625,�k�k��,2.3,��
2020/07/26,02:20,0.649,0.926,0.588,1.117,0.805,0.388,0.665,0.625,�k�k��,2.0,��
2020/07/26,02:30,0.648,0.925,0.587,1.121,0.806,0.389,0.664,0.627,�k,2.2,��
2020/07/26,02:40,0.648,0.926,0.587,1.117,0.807,0.390,0.667,0.627,�k,2.3,��
2020/07/26,02:50,0.649,0.926,0.586,1.118,0.807,0.389,0.664,0.625,�k,3.1,�L
2020/07/26,03:00,0.648,0.928,0.588,1.119,0.805,0.387,0.665,0.624,�k,3.2,�L
2020/07/26,03:10,0.644,0.925,0.584,1.119,0.805,0.388,0.667,0.624,�k,2.5,�L
2020/07/26,03:20,0.645,0.925,0.586,1.121,0.805,0.387,0.665,0.624,�k�k��,2.9,�L
2020/07/26,03:30,0.646,0.927,0.586,1.117,0.805,0.388,0.664,0.624,�k�k��,2.6,��
2020/07/26,03:40,0.645,0.926,0.587,1.117,0.807,0.388,0.665,0.623,�k�k��,2.8,��
2020/07/26,03:50,0.647,0.926,0.587,1.118,0.808,0.389,0.665,0.627,�k,1.7,��
2020/07/26,04:00,0.647,0.924,0.587,1.117,0.804,0.389,0.665,0.624,�k,2.3,�L
2020/07/26,04:10,0.646,0.925,0.587,1.118,0.806,0.388,0.665,0.626,�k,2.9,�L
2020/07/26,04:20,0.648,0.926,0.587,1.117,0.805,0.390,0.665,0.627,�k,3.4,�L
2020/07/26,04:30,0.648,0.925,0.588,1.120,0.806,0.388,0.665,0.623,�k,2.8,�L
2020/07/26,04:40,0.646,0.924,0.587,1.120,0.807,0.388,0.665,0.626,�k,2.9,�L
2020/07/26,04:50,0.646,0.924,0.586,1.117,0.805,0.390,0.666,0.625,�k,2.8,�L
2020/07/26,05:00,0.646,0.923,0.586,1.117,0.805,0.389,0.662,0.626,�k,2.6,�L
2020/07/26,05:10,0.645,0.925,0.585,1.118,0.805,0.389,0.663,0.624,�k,2.5,�L
2020/07/26,05:20,0.648,0.923,0.586,1.118,0.806,0.387,0.665,0.625,�k,2.6,�L
2020/07/26,05:30,0.647,0.925,0.587,1.117,0.807,0.388,0.664,0.624,�k�k��,2.2,�L
2020/07/26,05:40,0.646,0.922,0.586,1.117,0.808,0.389,0.666,0.626,�k�k��,2.3,�L
2020/07/26,05:50,0.646,0.924,0.586,1.117,0.805,0.388,0.664,0.625,�k,1.7,�L
2020/07/26,06:00,0.645,0.923,0.586,1.116,0.806,0.388,0.665,0.625,�k�k��,2.3,�L
2020/07/26,06:10,0.645,0.921,0.587,1.115,0.807,0.388,0.663,0.624,�k,1.5,�L
2020/07/26,06:20,0.647,0.924,0.587,1.117,0.807,0.388,0.664,0.625,�k�k��,2.2,�L
2020/07/26,06:30,0.648,0.924,0.586,1.118,0.806,0.387,0.665,0.625,�k�k��,2.5,�L
2020/07/26,06:40,0.646,0.925,0.585,1.118,0.805,0.388,0.664,0.626,�k�k��,2.6,��
2020/07/26,06:50,0.646,0.923,0.585,1.116,0.806,0.388,0.664,0.625,�k�k��,2.3,�L
2020/07/26,07:00,0.646,0.924,0.586,1.117,0.804,0.387,0.665,0.624,�k�k��,2.3,�L
2020/07/26,07:10,0.647,0.925,0.585,1.117,0.803,0.389,0.663,0.625,�k�k��,2.6,�L
2020/07/26,07:20,0.646,0.923,0.586,1.117,0.804,0.386,0.664,0.624,�k,3.3,��
2020/07/26,07:30,0.645,0.926,0.586,1.116,0.805,0.388,0.664,0.625,�k,4.0,��
2020/07/26,07:40,0.645,0.923,0.585,1.118,0.804,0.388,0.663,0.623,�k,3.6,��
2020/07/26,07:50,0.645,0.921,0.585,1.115,0.805,0.387,0.662,0.624,�k,3.2,��
2020/07/26,08:00,0.644,0.922,0.585,1.117,0.805,0.387,0.663,0.626,�k,3.4,�L
2020/07/26,08:10,0.646,0.923,0.584,1.116,0.805,0.387,0.663,0.624,�k,3.5,��
2020/07/26,08:20,0.645,0.922,0.583,1.114,0.804,0.387,0.662,0.625,�k,4.3,��
2020/07/26,08:30,0.645,0.921,0.583,1.114,0.803,0.386,0.663,0.625,�k,3.2,��
2020/07/26,08:40,0.644,0.922,0.583,1.115,0.804,0.386,0.663,0.623,�k�k��,2.0,��
2020/07/26,08:50,0.645,0.917,0.584,1.118,0.803,0.387,0.663,0.623,�k,2.0,��
2020/07/26,09:00,0.643,0.920,0.582,1.117,0.805,0.386,0.662,0.622,�k,2.3,��
2020/07/26,09:10,0.644,0.924,0.581,1.116,0.805,0.386,0.663,0.624,�k�k��,2.6,��
2020/07/26,09:20,0.645,0.920,0.585,1.117,0.805,0.386,0.661,0.623,�k��,2.3,��
2020/07/26,09:30,0.646,0.922,0.584,1.114,0.806,0.386,0.662,0.623,�k��,2.6,��
2020/07/26,09:40,0.645,0.923,0.584,1.115,0.805,0.386,0.663,0.625,�k��,1.5,��
2020/07/26,09:50,0.646,0.921,0.582,1.117,0.803,0.386,0.663,0.623,�k�k��,1.7,��
2020/07/26,10:00,0.645,0.923,0.584,1.115,0.802,0.387,0.665,0.623,�k��,2.3,��
2020/07/26,10:10,0.646,0.922,0.583,1.117,0.802,0.387,0.662,0.621,�k��,2.2,��
2020/07/26,10:20,0.646,0.924,0.582,1.117,0.803,0.385,0.663,0.624,�k��,2.0,��
2020/07/26,10:30,0.647,0.924,0.582,1.116,0.802,0.388,0.662,0.621,�k,2.0,��
2020/07/26,10:40,0.646,0.922,0.584,1.120,0.804,0.388,0.664,0.624,�k,1.9,��
2020/07/26,10:50,0.646,0.923,0.583,1.116,0.804,0.386,0.663,0.623,�k�k��,1.7,��
2020/07/26,11:00,0.646,0.922,0.584,1.117,0.804,0.387,0.664,0.624,�k�k��,2.2,��
2020/07/26,11:10,0.645,0.925,0.584,1.116,0.804,0.387,0.663,0.624,�k,2.6,��
2020/07/26,11:20,0.648,0.924,0.584,1.116,0.805,0.388,0.664,0.626,�k�k��,2.6,��
2020/07/26,11:30,0.647,0.925,0.584,1.117,0.805,0.388,0.664,0.623,�k�k��,3.3,�L
2020/07/26,11:40,0.647,0.924,0.584,1.117,0.806,0.388,0.664,0.625,�k�k��,4.0,�L
2020/07/26,11:50,0.647,0.925,0.583,1.116,0.806,0.388,0.665,0.623,�k�k��,4.1,�L
2020/07/26,12:00,0.648,0.928,0.584,1.116,0.806,0.388,0.664,0.622,�k�k��,5.1,�L
2020/07/26,12:10,0.648,0.926,0.584,1.119,0.806,0.389,0.666,0.625,�k�k��,5.8,�L
2020/07/26,12:20,0.649,0.927,0.584,1.115,0.805,0.388,0.664,0.624,�k�k��,5.9,�L
2020/07/26,12:30,0.649,0.928,0.584,1.118,0.805,0.388,0.666,0.624,�k,3.2,�L
2020/07/26,12:40,0.647,0.927,0.584,1.118,0.806,0.388,0.665,0.622,�k,3.3,��
2020/07/26,12:50,0.645,0.927,0.584,1.117,0.805,0.387,0.664,0.622,�k�k��,3.2,��
2020/07/26,13:00,0.648,0.927,0.585,1.118,0.806,0.387,0.664,0.622,�k�k��,2.6,��
2020/07/26,13:10,0.647,0.927,0.586,1.117,0.805,0.387,0.664,0.624,�k�k��,3.5,��
2020/07/26,13:20,0.648,0.928,0.586,1.117,0.806,0.388,0.665,0.623,�k��,3.3,��
2020/07/26,13:30,0.648,0.928,0.584,1.118,0.805,0.388,0.663,0.624,�k��,2.6,��
2020/07/26,13:40,0.646,0.924,0.585,1.117,0.805,0.390,0.665,0.624,��,1.2,��
2020/07/26,13:50,0.648,0.928,0.585,1.119,0.805,0.389,0.665,0.625,���쓌,1.7,��
2020/07/26,14:00,0.647,0.926,0.585,1.118,0.806,0.387,0.666,0.623,��,0.6,��
2020/07/26,14:10,0.649,0.928,0.585,1.116,0.808,0.388,0.665,0.625,�k��,0.6,��
2020/07/26,14:20,0.648,0.925,0.584,1.120,0.806,0.387,0.665,0.624,�k��,0.6,��
2020/07/26,14:30,0.648,0.926,0.587,1.117,0.805,0.388,0.665,0.623,-,CALM,��
2020/07/26,14:40,0.647,0.928,0.584,1.119,0.807,0.387,0.666,0.624,-,CALM,��
2020/07/26,14:50,0.648,0.928,0.585,1.118,0.809,0.389,0.666,0.624,-,CALM,��
2020/07/26,15:00,0.648,0.928,0.587,1.118,0.806,0.387,0.665,0.624,�k�k��,1.1,��
2020/07/26,15:10,0.649,0.926,0.586,1.119,0.805,0.387,0.665,0.624,�k�k��,1.4,��
2020/07/26,15:20,0.647,0.929,0.587,1.119,0.807,0.388,0.666,0.624,�k�k��,1.9,��
2020/07/26,15:30,0.649,0.928,0.585,1.118,0.806,0.388,0.666,0.624,�k�k��,2.2,��
2020/07/26,15:40,0.646,0.927,0.584,1.122,0.805,0.388,0.667,0.623,�k,1.7,��
2020/07/26,15:50,0.650,0.929,0.585,1.120,0.806,0.389,0.667,0.623,�k,2.3,��
2020/07/26,16:00,0.648,0.954,0.586,1.121,0.809,0.389,0.667,0.625,�k�k��,1.9,��
2020/07/26,16:10,0.651,0.935,0.586,1.119,0.807,0.390,0.666,0.625,�k�k��,2.6,��
2020/07/26,16:20,0.649,0.930,0.586,1.122,0.808,0.389,0.667,0.625,�k,2.6,�L
2020/07/26,16:30,0.649,0.928,0.586,1.119,0.807,0.389,0.666,0.625,�k,2.5,��
2020/07/26,16:40,0.646,0.928,0.585,1.120,0.809,0.389,0.666,0.624,�k,2.8,��
2020/07/26,16:50,0.648,0.929,0.585,1.122,0.806,0.389,0.666,0.624,�k,2.6,�L
2020/07/26,17:00,0.650,0.929,0.588,1.122,0.807,0.388,0.666,0.624,�k,2.9,�L
2020/07/26,17:10,0.648,0.930,0.587,1.122,0.808,0.389,0.665,0.624,�k�k��,3.2,�L
2020/07/26,17:20,0.651,0.928,0.585,1.120,0.808,0.388,0.665,0.624,�k,4.6,�L
2020/07/26,17:30,0.648,0.930,0.587,1.120,0.807,0.388,0.665,0.624,�k,4.0,�L
2020/07/26,17:40,0.649,0.930,0.586,1.121,0.807,0.388,0.666,0.625,�k,3.8,�L
2020/07/26,17:50,0.648,0.929,0.587,1.121,0.809,0.388,0.665,0.624,�k,3.4,�L
2020/07/26,18:00,0.648,0.929,0.585,1.122,0.807,0.388,0.666,0.625,�k�k��,2.8,�L
2020/07/26,18:10,0.648,0.929,0.587,1.121,0.809,0.388,0.665,0.625,�k,2.9,�L
2020/07/26,18:20,0.648,0.929,0.586,1.121,0.809,0.388,0.667,0.623,�k,2.6,�L
2020/07/26,18:30,0.647,0.931,0.589,1.119,0.810,0.389,0.667,0.625,�k,3.2,�L
2020/07/26,18:40,0.648,0.931,0.589,1.120,0.808,0.390,0.667,0.625,�k,3.2,��
2020/07/26,18:50,0.646,0.931,0.588,1.124,0.809,0.389,0.665,0.626,�k,3.5,��
2020/07/26,19:00,0.648,0.932,0.589,1.121,0.809,0.389,0.666,0.625,�k,3.5,�L
2020/07/26,19:10,0.649,0.931,0.589,1.121,0.810,0.389,0.668,0.626,�k,3.5,��
2020/07/26,19:20,0.648,0.930,0.587,1.124,0.810,0.389,0.664,0.625,�k,3.4,��
2020/07/26,19:30,0.648,0.931,0.589,1.120,0.809,0.389,0.667,0.625,�k,1.9,��
2020/07/26,19:40,0.648,0.931,0.587,1.122,0.809,0.388,0.667,0.627,�k�k��,1.9,��
2020/07/26,19:50,0.649,0.932,0.589,1.121,0.809,0.389,0.667,0.624,�k,1.7,��
2020/07/26,20:00,0.648,0.933,0.590,1.122,0.809,0.387,0.667,0.626,�k,2.0,�L
2020/07/26,20:10,0.649,0.931,0.590,1.120,0.808,0.387,0.666,0.625,�k,2.3,�L
2020/07/26,20:20,0.647,0.929,0.588,1.122,0.809,0.388,0.665,0.625,�k,1.7,��
2020/07/26,20:30,0.649,0.930,0.587,1.120,0.810,0.389,0.668,0.624,�k,1.9,��
2020/07/26,20:40,0.647,0.929,0.589,1.122,0.809,0.388,0.665,0.624,�k,1.4,�L
2020/07/26,20:50,0.648,0.930,0.588,1.120,0.809,0.389,0.666,0.627,�k�k��,1.7,�L
2020/07/26,21:00,0.648,0.931,0.587,1.122,0.809,0.387,0.667,0.626,�k,1.7,�L
2020/07/26,21:10,0.648,0.929,0.589,1.120,0.811,0.389,0.668,0.627,�k,1.7,��
2020/07/26,21:20,0.650,0.929,0.589,1.123,0.811,0.388,0.666,0.625,�k,1.7,��
2020/07/26,21:30,0.649,0.931,0.588,1.122,0.809,0.389,0.667,0.627,�k�k��,1.7,�L
2020/07/26,21:40,0.649,0.930,0.588,1.122,0.810,0.389,0.667,0.626,�k,1.9,�L
2020/07/26,21:50,0.648,0.929,0.588,1.120,0.808,0.388,0.666,0.627,�k,0.9,�L
2020/07/26,22:00,0.649,0.932,0.588,1.123,0.810,0.389,0.666,0.626,�k�k��,1.2,��
2020/07/26,22:10,0.650,0.929,0.589,1.121,0.810,0.387,0.667,0.628,�k,1.4,�L
2020/07/26,22:20,0.649,0.931,0.588,1.118,0.810,0.389,0.667,0.626,�k��,0.8,�L
2020/07/26,22:30,0.650,0.929,0.589,1.124,0.809,0.388,0.667,0.626,�k,0.6,�L
2020/07/26,22:40,0.648,0.928,0.588,1.120,0.810,0.389,0.667,0.628,�k,1.1,�L
2020/07/26,22:50,0.651,0.929,0.589,1.118,0.810,0.389,0.667,0.624,�k,1.2,�L
2020/07/26,23:00,0.647,0.928,0.588,1.120,0.810,0.388,0.666,0.627,�k,1.7,�L
2020/07/26,23:10,0.647,0.927,0.587,1.120,0.809,0.391,0.666,0.627,�k,1.2,�L
2020/07/26,23:20,0.646,0.931,0.588,1.123,0.811,0.388,0.666,0.627,�k�k��,0.9,�L
2020/07/26,23:30,0.647,0.928,0.587,1.121,0.808,0.388,0.665,0.626,�k,1.4,�L
2020/07/26,23:40,0.646,0.928,0.588,1.118,0.808,0.390,0.665,0.626,�k�k��,1.5,�L
2020/07/26,23:50,0.645,0.927,0.586,1.119,0.808,0.389,0.664,0.624,�k�k��,2.3,�L
